Location: Danville Conservation Area
(38.8674°N, 91.5143°W)
Time: 13:46:59
(UTC-06:00)

OTV 5 (USA 277) - Visible Passes

Search period start: 16 November 2018 00:00
Search period end: 26 November 2018 00:00
Orbit: 339 x 348 km, 54.5° (Epoch: 14 November)

Date Brightness Start Highest point End Pass type
(mag) Time Alt. Az. Time Alt. Az. Time Alt. Az.
16 Nov ? 17:53:15 10° W 17:54:51 14° SW 17:56:26 10° SSW visible
23 Nov ? 06:19:25 10° SSW 06:21:56 28° SE 06:24:27 10° ENE visible
25 Nov ? 05:31:37 10° S 05:34:06 26° SE 05:36:35 10° ENE visible
